Time,TemperatureF,DewpointF,PressureIn,WindDirection,WindDirectionDegrees,WindSpeedMPH,WindSpeedGustMPH,Humidity,HourlyPrecipIn,Conditions,Clouds,dailyrainin,SolarRadiationWatts/m^2,SoftwareType,DateUTC
2013-04-01 00:14:00,30.0,21.0,-100.00,NW,305,13.0,22.0,68,0.00,,,0.10,1.000000,,2013-04-01 04:14:00,
2013-04-01 00:24:00,30.0,21.0,-100.00,NW,305,13.0,22.0,68,0.00,,,0.10,1.000000,,2013-04-01 04:24:00,
2013-04-01 00:33:00,30.0,21.0,-100.00,NW,305,13.0,22.0,68,0.00,,,0.10,1.000000,,2013-04-01 04:33:00,
2013-04-01 00:43:00,30.0,21.0,-100.00,NW,305,13.0,22.0,68,0.00,,,0.10,1.000000,,2013-04-01 04:43:00,
2013-04-01 01:13:00,28.0,16.0,-100.00,NW,309,9.0,23.0,61,0.00,,,0.10,1.000000,,2013-04-01 05:13:00,
2013-04-01 01:23:00,28.0,16.0,-100.00,NW,309,9.0,23.0,61,0.00,,,0.10,1.000000,,2013-04-01 05:23:00,
2013-04-01 01:33:00,28.0,16.0,-100.00,NW,309,9.0,23.0,61,0.00,,,0.10,1.000000,,2013-04-01 05:33:00,
2013-04-01 01:43:00,28.0,16.0,-100.00,NW,309,9.0,23.0,61,0.00,,,0.10,1.000000,,2013-04-01 05:43:00,
2013-04-01 02:13:00,28.0,16.0,-100.00,WNW,293,11.0,22.0,60,0.00,,,0.10,1.000000,,2013-04-01 06:13:00,
2013-04-01 02:23:00,28.0,16.0,-100.00,WNW,293,11.0,22.0,60,0.00,,,0.10,1.000000,,2013-04-01 06:23:00,
2013-04-01 02:33:00,28.0,16.0,-100.00,WNW,293,11.0,22.0,60,0.00,,,0.10,1.000000,,2013-04-01 06:33:00,
2013-04-01 02:43:00,28.0,16.0,-100.00,WNW,293,11.0,22.0,60,0.00,,,0.10,1.000000,,2013-04-01 06:43:00,
2013-04-01 03:13:00,27.0,15.0,-100.00,WNW,298,12.0,28.0,59,0.00,,,0.10,1.000000,,2013-04-01 07:13:00,
2013-04-01 03:22:00,27.0,15.0,-100.00,WNW,298,12.0,28.0,59,0.00,,,0.10,1.000000,,2013-04-01 07:22:00,
2013-04-01 03:32:00,27.0,15.0,-100.00,WNW,298,12.0,28.0,59,0.00,,,0.10,1.000000,,2013-04-01 07:32:00,
2013-04-01 03:42:00,27.0,15.0,-100.00,WNW,298,12.0,28.0,59,0.00,,,0.10,1.000000,,2013-04-01 07:42:00,
2013-04-01 04:13:00,25.0,17.0,-100.00,NW,312,12.0,23.0,70,0.00,,,0.08,1.000000,,2013-04-01 08:13:00,
2013-04-01 04:22:00,25.0,17.0,-100.00,NW,312,12.0,23.0,70,0.00,,,0.08,1.000000,,2013-04-01 08:22:00,
2013-04-01 04:32:00,25.0,17.0,-100.00,NW,312,12.0,23.0,70,0.00,,,0.08,1.000000,,2013-04-01 08:32:00,
2013-04-01 04:43:00,25.0,17.0,-100.00,NW,312,12.0,23.0,70,0.00,,,0.08,1.000000,,2013-04-01 08:43:00,
2013-04-01 05:12:00,24.0,14.0,-100.00,WNW,295,11.0,26.0,65,0.00,,,0.07,1.000000,,2013-04-01 09:12:00,
2013-04-01 05:23:00,24.0,14.0,-100.00,WNW,295,11.0,26.0,65,0.00,,,0.07,1.000000,,2013-04-01 09:23:00,
2013-04-01 05:33:00,24.0,14.0,-100.00,WNW,295,11.0,26.0,65,0.00,,,0.07,1.000000,,2013-04-01 09:33:00,
2013-04-01 05:43:00,24.0,14.0,-100.00,WNW,295,11.0,26.0,65,0.00,,,0.07,1.000000,,2013-04-01 09:43:00,
2013-04-01 06:13:00,24.0,13.0,-100.00,WNW,302,11.0,20.0,61,0.00,,,0.05,1.000000,,2013-04-01 10:13:00,
2013-04-01 06:23:00,24.0,13.0,-100.00,WNW,302,11.0,20.0,61,0.00,,,0.05,1.000000,,2013-04-01 10:23:00,
2013-04-01 06:33:00,24.0,13.0,-100.00,WNW,302,11.0,20.0,61,0.00,,,0.05,1.000000,,2013-04-01 10:33:00,
2013-04-01 06:42:00,24.0,13.0,-100.00,WNW,302,11.0,20.0,61,0.00,,,0.05,1.000000,,2013-04-01 10:42:00,
2013-04-01 07:13:00,23.0,12.0,-100.00,WNW,301,11.0,26.0,63,0.00,,,0.03,1.000000,,2013-04-01 11:13:00,
2013-04-01 07:23:00,23.0,12.0,-100.00,WNW,301,11.0,26.0,63,0.00,,,0.03,1.000000,,2013-04-01 11:23:00,
2013-04-01 07:33:00,23.0,12.0,-100.00,WNW,301,11.0,26.0,63,0.00,,,0.03,1.000000,,2013-04-01 11:33:00,
2013-04-01 07:43:00,23.0,12.0,-100.00,WNW,301,11.0,26.0,63,0.00,,,0.03,1.000000,,2013-04-01 11:43:00,
2013-04-01 08:12:00,24.0,13.0,-100.00,NW,305,11.0,21.0,63,0.00,,,0.02,10.000000,,2013-04-01 12:12:00,
2013-04-01 08:23:00,24.0,13.0,-100.00,NW,305,11.0,21.0,63,0.00,,,0.02,10.000000,,2013-04-01 12:23:00,
2013-04-01 08:32:00,24.0,13.0,-100.00,NW,305,11.0,21.0,63,0.00,,,0.02,10.000000,,2013-04-01 12:32:00,
2013-04-01 08:42:00,24.0,13.0,-100.00,NW,305,11.0,21.0,63,0.00,,,0.02,10.000000,,2013-04-01 12:42:00,
2013-04-01 09:12:00,25.0,12.0,-100.00,NW,319,12.0,23.0,56,0.00,,,0.02,135.000000,,2013-04-01 13:12:00,
2013-04-01 09:22:00,25.0,12.0,-100.00,NW,319,12.0,23.0,56,0.00,,,0.02,135.000000,,2013-04-01 13:22:00,
2013-04-01 09:33:00,25.0,12.0,-100.00,NW,319,12.0,23.0,56,0.00,,,0.02,135.000000,,2013-04-01 13:33:00,
2013-04-01 09:42:00,25.0,12.0,-100.00,NW,319,12.0,23.0,56,0.00,,,0.02,135.000000,,2013-04-01 13:42:00,
2013-04-01 10:13:00,26.0,12.0,-100.00,NW,311,11.0,24.0,55,0.00,,,0.02,221.000000,,2013-04-01 14:13:00,
2013-04-01 10:23:00,26.0,12.0,-100.00,NW,311,11.0,24.0,55,0.00,,,0.02,221.000000,,2013-04-01 14:23:00,
2013-04-01 10:33:00,26.0,12.0,-100.00,NW,311,11.0,24.0,55,0.00,,,0.02,221.000000,,2013-04-01 14:33:00,
2013-04-01 10:42:00,26.0,12.0,-100.00,NW,311,11.0,24.0,55,0.00,,,0.02,221.000000,,2013-04-01 14:42:00,
2013-04-01 11:13:00,27.0,10.0,-100.00,WNW,298,14.0,22.0,49,0.00,,,0.02,461.000000,,2013-04-01 15:13:00,
2013-04-01 11:23:00,27.0,10.0,-100.00,WNW,298,14.0,22.0,49,0.00,,,0.02,461.000000,,2013-04-01 15:23:00,
2013-04-01 11:34:00,27.0,10.0,-100.00,WNW,298,14.0,22.0,49,0.00,,,0.02,461.000000,,2013-04-01 15:34:00,
2013-04-01 11:43:00,27.0,10.0,-100.00,WNW,298,14.0,22.0,49,0.00,,,0.02,461.000000,,2013-04-01 15:43:00,
2013-04-01 12:13:00,26.0,19.0,-100.00,NW,304,12.0,24.0,75,0.00,,,0.02,347.000000,,2013-04-01 16:13:00,
2013-04-01 12:23:00,26.0,19.0,-100.00,NW,304,12.0,24.0,75,0.00,,,0.02,347.000000,,2013-04-01 16:23:00,
2013-04-01 12:33:00,26.0,19.0,-100.00,NW,304,12.0,24.0,75,0.00,,,0.02,347.000000,,2013-04-01 16:33:00,
2013-04-01 12:43:00,26.0,19.0,-100.00,NW,304,12.0,24.0,75,0.00,,,0.02,347.000000,,2013-04-01 16:43:00,
2013-04-01 14:12:00,29.0,10.0,-100.00,NW,305,11.0,30.0,45,-99.99,,,0.02,528.000000,,2013-04-01 18:12:00,
2013-04-01 14:22:00,29.0,10.0,-100.00,NW,305,11.0,30.0,45,-99.99,,,0.02,528.000000,,2013-04-01 18:22:00,
2013-04-01 14:33:00,29.0,10.0,-100.00,NW,305,11.0,30.0,45,-99.99,,,0.02,528.000000,,2013-04-01 18:33:00,
2013-04-01 14:43:00,29.0,10.0,-100.00,NW,305,11.0,30.0,45,-99.99,,,0.02,528.000000,,2013-04-01 18:43:00,
2013-04-01 15:13:00,30.0,10.0,-100.00,WNW,296,15.0,29.0,42,0.00,,,0.02,530.000000,,2013-04-01 19:13:00,
2013-04-01 15:23:00,30.0,10.0,-100.00,WNW,296,15.0,29.0,42,0.00,,,0.02,530.000000,,2013-04-01 19:23:00,
2013-04-01 15:32:00,30.0,10.0,-100.00,WNW,296,15.0,29.0,42,0.00,,,0.02,530.000000,,2013-04-01 19:32:00,
2013-04-01 15:42:00,30.0,10.0,-100.00,WNW,296,15.0,29.0,42,0.00,,,0.02,530.000000,,2013-04-01 19:42:00,
2013-04-01 16:13:00,29.0,12.0,-100.00,WNW,282,16.0,27.0,49,0.00,,,0.02,418.000000,,2013-04-01 20:13:00,
2013-04-01 16:23:00,29.0,12.0,-100.00,WNW,282,16.0,27.0,49,0.00,,,0.02,418.000000,,2013-04-01 20:23:00,
2013-04-01 16:33:00,29.0,12.0,-100.00,WNW,282,16.0,27.0,49,0.00,,,0.02,418.000000,,2013-04-01 20:33:00,
2013-04-01 16:43:00,29.0,12.0,-100.00,WNW,282,16.0,27.0,49,0.00,,,0.02,418.000000,,2013-04-01 20:43:00,
2013-04-01 17:12:00,27.0,13.0,-100.00,NW,313,11.0,32.0,56,0.00,,,0.02,428.000000,,2013-04-01 21:12:00,
2013-04-01 17:23:00,27.0,13.0,-100.00,NW,313,11.0,32.0,56,0.00,,,0.02,428.000000,,2013-04-01 21:23:00,
2013-04-01 17:33:00,27.0,13.0,-100.00,NW,313,11.0,32.0,56,0.00,,,0.02,428.000000,,2013-04-01 21:33:00,
2013-04-01 17:43:00,27.0,13.0,-100.00,NW,313,11.0,32.0,56,0.00,,,0.02,428.000000,,2013-04-01 21:43:00,
2013-04-01 18:13:00,27.0,9.0,-100.00,WNW,301,13.0,24.0,47,0.00,,,0.02,324.000000,,2013-04-01 22:13:00,
2013-04-01 18:23:00,27.0,9.0,-100.00,WNW,301,13.0,24.0,47,0.00,,,0.02,324.000000,,2013-04-01 22:23:00,
2013-04-01 18:33:00,27.0,9.0,-100.00,WNW,301,13.0,24.0,47,0.00,,,0.02,324.000000,,2013-04-01 22:33:00,
2013-04-01 18:43:00,27.0,9.0,-100.00,WNW,301,13.0,24.0,47,0.00,,,0.02,324.000000,,2013-04-01 22:43:00,
2013-04-01 19:12:00,26.0,12.0,-100.00,NW,316,10.0,25.0,54,0.00,,,0.02,104.000000,,2013-04-01 23:12:00,
2013-04-01 19:23:00,26.0,12.0,-100.00,NW,316,10.0,25.0,54,0.00,,,0.02,104.000000,,2013-04-01 23:23:00,
2013-04-01 19:32:00,26.0,12.0,-100.00,NW,316,10.0,25.0,54,0.00,,,0.02,104.000000,,2013-04-01 23:32:00,
2013-04-01 19:43:00,26.0,12.0,-100.00,NW,316,10.0,25.0,54,0.00,,,0.02,104.000000,,2013-04-01 23:43:00,
2013-04-01 20:12:00,25.0,9.0,-100.00,NW,310,8.0,23.0,51,0.00,,,0.02,60.000000,,2013-04-02 00:12:00,
2013-04-01 20:22:00,25.0,9.0,-100.00,NW,310,8.0,23.0,51,0.00,,,0.02,60.000000,,2013-04-02 00:22:00,
2013-04-01 20:33:00,25.0,9.0,-100.00,NW,310,8.0,23.0,51,0.00,,,0.02,60.000000,,2013-04-02 00:33:00,
2013-04-01 20:43:00,25.0,9.0,-100.00,NW,310,8.0,23.0,51,0.00,,,0.02,60.000000,,2013-04-02 00:43:00,
2013-04-01 21:12:00,24.0,9.0,-100.00,WNW,301,6.0,15.0,52,0.00,,,0.02,5.000000,,2013-04-02 01:12:00,
2013-04-01 21:22:00,24.0,9.0,-100.00,WNW,301,6.0,15.0,52,0.00,,,0.02,5.000000,,2013-04-02 01:22:00,
2013-04-01 21:32:00,24.0,9.0,-100.00,WNW,301,6.0,15.0,52,0.00,,,0.02,5.000000,,2013-04-02 01:32:00,
2013-04-01 21:43:00,24.0,9.0,-100.00,WNW,301,6.0,15.0,52,0.00,,,0.02,5.000000,,2013-04-02 01:43:00,
2013-04-01 22:12:00,23.0,9.0,-100.00,WNW,299,7.0,15.0,54,0.00,,,0.00,0.000000,,2013-04-02 02:12:00,
2013-04-01 22:22:00,23.0,9.0,-100.00,WNW,299,7.0,15.0,54,0.00,,,0.00,0.000000,,2013-04-02 02:22:00,
2013-04-01 22:32:00,23.0,9.0,-100.00,WNW,299,7.0,15.0,54,0.00,,,0.00,0.000000,,2013-04-02 02:32:00,
2013-04-01 22:42:00,23.0,9.0,-100.00,WNW,299,7.0,15.0,54,0.00,,,0.00,0.000000,,2013-04-02 02:42:00,
2013-04-01 23:13:00,22.0,9.0,-100.00,NW,306,8.0,14.0,56,0.00,,,0.00,0.000000,,2013-04-02 03:13:00,
2013-04-01 23:22:00,22.0,9.0,-100.00,NW,306,8.0,14.0,56,0.00,,,0.00,0.000000,,2013-04-02 03:22:00,
2013-04-01 23:33:00,22.0,9.0,-100.00,NW,306,8.0,14.0,56,0.00,,,0.00,0.000000,,2013-04-02 03:33:00,
2013-04-01 23:43:00,22.0,9.0,-100.00,NW,306,8.0,14.0,56,0.00,,,0.00,0.000000,,2013-04-02 03:43:00,